Location: Hilton Head Island
(32.2163°N, 80.7526°W)
Time: 20:15:58
(UTC-04:00)

Vanguard 2 Rocket - Pass Details

Date: 16 February 2026
Orbit: 553 x 3286 km, 32.9° (Epoch: 10 March)

Event Time Altitude Azimuth Distance (km) Brightness Sun altitude
Rises 14:48:28 0° 261° (W) 7,100 12.1 35.7°
Reaches altitude 10° 14:53:37 10° 262° (W) 5,864 11.8 34.9°
Maximum altitude 15:10:43 89° 353° (N) 2,098 9.3 32.4°
Drops below altitude 10° 15:20:23 10° 84° (E) 3,533 9.6 30.9°
Sets 15:22:43 0° 85° (E) 4,234 9.9 30.6°
